Imrali, Turkey

10:58 PM +03 on January 19, 2018 (GMT +0300)
Imrali

Weather History for 17060 - October, 2013

Change the Weather History Date:

Tuesday, October 1, 2013

  Actual Average Record
Temperature  
Mean Temperature 64 °F -  
Max Temperature 72 °F 66 °F - ()
Min Temperature 57 °F 55 °F - ()
Growing Degree Days 14 (Base 50)    
Moisture  
Dew Point 58 °F    
Average Humidity 68    
Maximum Humidity 88    
Minimum Humidity 50    
Precipitation  
Precipitation 0.04 in - - ()
Sea Level Pressure  
Sea Level Pressure 29.60 in    
Wind  
Wind Speed 10 mph ()    
Max Wind Speed 21 mph    
Max Gust Speed -    
Visibility 5.9 miles    
Events Rain    
T = Trace of Precipitation, MM = Missing Value Source: Averaged Metar Reports

Daily Weather History Graph

Daily Weather History Graph

Search for Another Location

Airport or City:

Trip Planner

Search our weather history database for the weather conditions in past years. The results will help you decide how hot, cold, wet, or windy it might be!

Date:

Astronomy

Oct. 01, 2013 Rise Set
Actual Time 7:01 AM EEST 6:46 PM EEST
Civil Twilight 6:33 AM EEST 7:14 PM EEST
Nautical Twilight 6:01 AM EEST 7:45 PM EEST
Astronomical Twilight 5:29 AM EEST 8:18 PM EEST
Moon 3:15 AM EEST (10/1) 4:41 PM EEST (10/1)
Length of Visible Light 12h 40m
Length of Day
11h 45m
Waning Crescent, 14% of the Moon is Illuminated
Oct 1
Waning Crescent
Oct 5
New
Oct 12
First Quarter
Oct 19
Full
Oct 27
Last Quarter

Hourly Weather History & Observations

Time (EEST) Temp. Dew Point Humidity Pressure Visibility Wind Dir Wind Speed Gust Speed Precip Events Conditions
12:20 AM 71.6 °F 59.0 °F 64% 29.65 in 6.2 mi ENE 4.6 mph - N/A   Mostly Cloudy
12:50 AM 71.6 °F 57.2 °F 60% 29.65 in 6.2 mi Variable 2.3 mph - N/A   Mostly Cloudy
1:20 AM 71.6 °F 57.2 °F 60% 29.65 in 6.2 mi SE 4.6 mph - N/A   Mostly Cloudy
1:50 AM 71.6 °F 57.2 °F 60% 29.65 in 6.2 mi ESE 3.5 mph - N/A   Mostly Cloudy
2:20 AM 68.0 °F 57.2 °F 68% 29.65 in 6.2 mi Variable 2.3 mph - N/A   Mostly Cloudy
2:50 AM 69.8 °F 59.0 °F 68% 29.65 in 6.2 mi SE 4.6 mph - N/A   Mostly Cloudy
3:00 AM 70 °F 58 °F 57% 29.65 in 6 mi SE 4.6 mph - -   Scattered Clouds
3:20 AM 73.4 °F 57.2 °F 57% 29.62 in 6.2 mi South 6.9 mph - N/A   Mostly Cloudy
3:50 AM 75.2 °F 59.0 °F 57% 29.62 in 6.2 mi SSW 12.7 mph - N/A   Mostly Cloudy
4:20 AM 75.2 °F 55.4 °F 50% 29.59 in 6.2 mi SSW 15.0 mph - N/A   Mostly Cloudy
4:50 AM 75.2 °F 55.4 °F 50% 29.59 in 6.2 mi SSW 10.4 mph - N/A   Mostly Cloudy
5:20 AM 75.2 °F 57.2 °F 53% 29.59 in 6.2 mi SSW 13.8 mph - N/A   Mostly Cloudy
5:50 AM 75.2 °F 55.4 °F 50% 29.59 in 6.2 mi SW 13.8 mph - N/A   Mostly Cloudy
6:20 AM 75.2 °F 57.2 °F 53% 29.59 in 6.2 mi SW 12.7 mph - N/A   Mostly Cloudy
6:40 AM 73.4 °F 60.8 °F 65% 29.59 in 6.2 mi WSW 17.3 mph - N/A Rain Light Rain Showers
6:50 AM 71.6 °F 60.8 °F 69% 29.59 in 6.2 mi WSW 17.3 mph - N/A Rain Light Rain Showers
7:20 AM 71.6 °F 62.6 °F 73% 29.62 in 6.2 mi WSW 15.0 mph - N/A   Mostly Cloudy
7:50 AM 71.6 °F 60.8 °F 69% 29.62 in 6.2 mi WSW 19.6 mph - N/A   Mostly Cloudy
8:20 AM 69.8 °F 59.0 °F 68% 29.62 in 6.2 mi WSW 18.4 mph - N/A Rain Light Rain Showers
8:50 AM 69.8 °F 60.8 °F 73% 29.65 in 6.2 mi WSW 19.6 mph - N/A Rain Light Rain Showers
9:00 AM 69 °F 59 °F 64% 29.65 in 6 mi WSW 19.6 mph - - Rain Light Rain Showers
9:20 AM 68.0 °F 60.8 °F 78% 29.62 in 3.7 mi SW 18.4 mph - N/A Rain Light Rain Showers
9:50 AM 68.0 °F 60.8 °F 78% 29.62 in 3.7 mi WSW 11.5 mph - N/A Rain Light Rain Showers
10:20 AM 68.0 °F 60.8 °F 78% 29.59 in 6.2 mi SW 11.5 mph - N/A   Mostly Cloudy
10:44 AM 69.8 °F 60.8 °F 73% 29.62 in 4.3 mi SSW 12.7 mph - N/A Rain Light Rain Showers
10:50 AM 69.8 °F 60.8 °F 73% 29.62 in 4.3 mi South 15.0 mph - N/A Rain Light Rain Showers
11:15 AM 69.8 °F 59.0 °F 68% 29.59 in 6.2 mi South 17.3 mph - N/A   Mostly Cloudy
11:20 AM 69.8 °F 59.0 °F 68% 29.59 in 6.2 mi South 16.1 mph - N/A   Mostly Cloudy
11:50 AM 71.6 °F 59.0 °F 64% 29.59 in 6.2 mi SSW 16.1 mph - N/A   Mostly Cloudy
12:20 PM 71.6 °F 59.0 °F 64% 29.59 in 6.2 mi SSW 18.4 mph - N/A   Mostly Cloudy
12:50 PM 71.6 °F 59.0 °F 64% 29.59 in 6.2 mi SSW 17.3 mph - N/A   Mostly Cloudy
1:20 PM 71.6 °F 59.0 °F 64% 29.59 in 6.2 mi SSW 17.3 mph - N/A   Mostly Cloudy
1:50 PM 71.6 °F 59.0 °F 64% 29.59 in 6.2 mi SW 13.8 mph - N/A   Mostly Cloudy
2:20 PM 71.6 °F 59.0 °F 64% 29.56 in 6.2 mi SW 11.5 mph - N/A Rain Light Rain Showers
2:50 PM 69.8 °F 60.8 °F 73% 29.56 in 6.2 mi West 6.9 mph - N/A Rain Light Rain Showers
3:00 PM 70 °F 61 °F 65% 29.58 in 6 mi West 6.9 mph - - Rain Light Rain Showers
3:20 PM 71.6 °F 60.8 °F 69% 29.56 in 6.2 mi SW 4.6 mph - N/A   Mostly Cloudy
3:50 PM 71.6 °F 57.2 °F 60% 29.56 in 6.2 mi SW 12.7 mph - N/A   Mostly Cloudy
4:20 PM 71.6 °F 57.2 °F 60% 29.53 in 6.2 mi SW 9.2 mph - N/A   Mostly Cloudy
4:50 PM 73.4 °F 57.2 °F 57% 29.53 in 6.2 mi SSW 13.8 mph - N/A   Mostly Cloudy
5:20 PM 71.6 °F 59.0 °F 64% 29.53 in 6.2 mi SW 12.7 mph - N/A   Mostly Cloudy
5:50 PM 68.0 °F 57.2 °F 68% 29.56 in 4.3 mi NW 13.8 mph - N/A Rain Light Rain Showers
6:20 PM 66.2 °F 55.4 °F 68% 29.56 in 6.2 mi NNW 9.2 mph - N/A   Mostly Cloudy
6:50 PM 66.2 °F 57.2 °F 73% 29.56 in 6.2 mi NW 10.4 mph - N/A   Mostly Cloudy
7:20 PM 66.2 °F 57.2 °F 73% 29.59 in 6.2 mi NNW 9.2 mph - N/A   Mostly Cloudy
7:50 PM 64.4 °F 57.2 °F 77% 29.59 in 5.6 mi NW 8.1 mph - N/A Rain Light Rain Showers
8:20 PM 64.4 °F 57.2 °F 77% 29.59 in 5.0 mi NW 11.5 mph - N/A Rain Light Rain Showers
8:50 PM 62.6 °F 59.0 °F 88% 29.59 in 5.6 mi NNW 11.5 mph - N/A Rain Light Rain Showers
9:00 PM 63 °F 59 °F 82% 29.62 in 6 mi NNW 11.5 mph - - Rain Light Rain Showers
9:20 PM 62.6 °F 57.2 °F 82% 29.62 in 3.7 mi North 16.1 mph - N/A Rain Rain Showers
9:50 PM 59.0 °F 55.4 °F 88% 29.62 in 5.6 mi NNW 17.3 mph - N/A Rain Rain Showers
10:20 PM 60.8 °F 53.6 °F 77% 29.62 in 6.2 mi North 15.0 mph - N/A Rain Light Rain Showers
10:50 PM 57.2 °F 53.6 °F 88% 29.65 in 6.2 mi North 17.3 mph - N/A Rain Light Rain Showers
11:20 PM 57.2 °F 53.6 °F 88% 29.65 in 6.2 mi North 19.6 mph - N/A   Mostly Cloudy
11:50 PM 57.2 °F 51.8 °F 82% 29.65 in 6.2 mi North 20.7 mph - N/A   Mostly Cloudy